| time (UTC) | temp C | wind direction | speed KPH | gust KPH | rain 1hr cm | rain 24hr cm | rain mn cm | humidity % | barometer mb |
| 20260507084532 | 8 | 82 | 0.0 | 0.0 | 0.00 | 0.00 | 0.00 | 42 | 1010.3 |
| 20260507083030 | 8 | 82 | 0.0 | 0.0 | 0.00 | 0.00 | 0.00 | 41 | 1010.2 |
| 20260507081528 | 9 | 82 | 0.0 | 0.0 | 0.00 | 0.00 | 0.00 | 40 | 1010.1 |
| 20260507080036 | 9 | 82 | 0.0 | 3.2 | 0.00 | 0.00 | 0.00 | 40 | 1010.0 |
| 20260507074528 | 9 | 44 | 0.0 | 0.0 | 0.00 | 0.00 | 0.00 | 43 | 1010.0 |
| 20260507073024 | 10 | 44 | 0.0 | 0.0 | 0.00 | 0.00 | 0.00 | 43 | 1010.1 |
| 20260507071549 | 10 | 45 | 1.6 | 8.0 | 0.00 | 0.00 | 0.00 | 35 | 1010.2 |
| 20260507070020 | 11 | 25 | 0.0 | 0.0 | 0.00 | 0.00 | 0.00 | 29 | 1010.3 |
| 20260507064519 | 11 | 25 | 0.0 | 0.0 | 0.00 | 0.00 | 0.00 | 32 | 1010.1 |
| 20260507063016 | 11 | 25 | 0.0 | 0.0 | 0.00 | 0.00 | 0.00 | 35 | 1010.2 |
| 20260507061517 | 11 | 25 | 0.0 | 0.0 | 0.00 | 0.00 | 0.00 | 35 | 1010.4 |
| 20260507060012 | 11 | 25 | 0.0 | 0.0 | 0.00 | 0.00 | 0.00 | 39 | 1010.1 |
| 20260507054511 | 11 | 25 | 0.0 | 0.0 | 0.00 | 0.00 | 0.00 | 44 | 1009.9 |
| 20260507053012 | 11 | 25 | 0.0 | 0.0 | 0.00 | 0.00 | 0.00 | 47 | 1009.7 |
| 20260507051507 | 11 | 25 | 0.0 | 1.6 | 0.00 | 0.00 | 0.00 | 52 | 1010.2 |
| 20260507050005 | 11 | 66 | 0.0 | 1.6 | 0.00 | 0.00 | 0.00 | 54 | 1010.2 |
| 20260507044500 | 12 | 19 | 0.0 | 11.3 | 0.00 | 0.00 | 0.00 | 56 | 1010.3 |
| 20260507043059 | 12 | 50 | 0.0 | 1.6 | 0.00 | 0.00 | 0.00 | 58 | 1009.9 |
| 20260507041555 | 12 | 50 | 0.0 | 0.0 | 0.00 | 0.00 | 0.00 | 65 | 1009.6 |
| 20260507040049 | 13 | 49 | 0.0 | 3.2 | 0.00 | 0.00 | 0.00 | 76 | 1009.5 |
| 20260507034547 | 13 | 79 | 0.0 | 4.8 | 0.00 | 0.00 | 0.00 | 81 | 1009.3 |
| 20260507033050 | 13 | 352 | 0.0 | 3.2 | 0.00 | 0.00 | 0.00 | 82 | 1009.6 |
| 20260507031543 | 13 | 47 | 0.0 | 8.0 | 0.00 | 0.00 | 0.00 | 81 | 1009.2 |
| 20260507030041 | 13 | 27 | 1.6 | 6.4 | 0.00 | 0.00 | 0.00 | 81 | 1009.3 |
| 20260507024542 | 14 | 43 | 0.0 | 8.0 | 0.00 | 0.00 | 0.00 | 81 | 1009.2 |
| 20260507023039 | 14 | 40 | 3.2 | 6.4 | 0.00 | 0.00 | 0.00 | 81 | 1009.1 |
| 20260507021537 | 14 | 69 | 4.8 | 11.3 | 0.00 | 0.00 | 0.00 | 82 | 1009.0 |
| 20260507020040 | 15 | 41 | 1.6 | 9.7 | 0.00 | 0.00 | 0.00 | 81 | 1008.8 |
| 20260507014537 | 15 | 79 | 1.6 | 6.4 | 0.00 | 0.00 | 0.00 | 79 | 1009.0 |
| 20260507013032 | 15 | 85 | 0.0 | 4.8 | 0.00 | 0.00 | 0.00 | 75 | 1009.0 |
| 20260507011537 | 15 | 39 | 0.0 | 1.6 | 0.00 | 0.00 | 0.00 | 75 | 1009.1 |
| 20260507010028 | 15 | 33 | 1.6 | 6.4 | 0.00 | 0.00 | 0.00 | 78 | 1008.7 |
| 20260507004534 | 16 | 360 | 0.0 | 3.2 | 0.00 | 0.00 | 0.00 | 74 | 1008.6 |
| 20260507003022 | 16 | 25 | 1.6 | 8.0 | 0.00 | 0.00 | 0.00 | 68 | 1008.3 |
| 20260507001521 | 17 | 53 | 3.2 | 8.0 | 0.00 | 0.00 | 0.00 | 42 | 1008.2 |
| 20260507000018 | 17 | 332 | 0.0 | 3.2 | 0.00 | 0.00 | 0.00 | 38 | 1007.5 |
| 20260506234519 | 17 | 49 | 0.0 | 1.6 | 0.00 | 0.00 | 0.00 | 40 | 1007.0 |
| 20260506233018 | 17 | 25 | 0.0 | 0.0 | 0.00 | 0.00 | 0.00 | 46 | 1006.8 |
| 20260506231517 | 18 | 26 | 0.0 | 1.6 | 0.00 | 0.00 | 0.00 | 56 | 1006.8 |
| 20260506230016 | 18 | 27 | 0.0 | 1.6 | 0.00 | 0.00 | 0.00 | 68 | 1006.7 |
| 20260506224516 | 18 | 270 | 0.0 | 3.2 | 0.00 | 0.00 | 0.00 | 76 | 1006.7 |
| 20260506223017 | 19 | 276 | 0.0 | 4.8 | 0.00 | 0.00 | 0.00 | 79 | 1006.6 |
| 20260506221515 | 19 | 274 | 0.0 | 4.8 | 0.00 | 0.00 | 0.00 | 80 | 1006.4 |
| 20260506220029 | 19 | 266 | 0.0 | 6.4 | 0.00 | 0.00 | 0.00 | 80 | 1006.3 |
| 20260506214514 | 20 | 252 | 0.0 | 4.8 | 0.00 | 0.00 | 0.00 | 80 | 1006.2 |
| 20260506213013 | 20 | 285 | 0.0 | 8.0 | 0.00 | 0.00 | 0.00 | 80 | 1005.9 |
| 20260506211512 | 20 | 274 | 0.0 | 6.4 | 0.00 | 0.00 | 0.00 | 80 | 1005.9 |
| 20260506210013 | 20 | 292 | 0.0 | 4.8 | 0.00 | 0.00 | 0.00 | 80 | 1005.7 |
| 20260506204511 | 20 | 273 | 1.6 | 6.4 | 0.00 | 0.00 | 0.00 | 80 | 1005.6 |
| 20260506203018 | 19 | 276 | 0.0 | 4.8 | 0.00 | 0.00 | 0.00 | 76 | 1005.6 |
| 20260506201508 | 19 | 278 | 0.0 | 6.4 | 0.00 | 0.00 | 0.00 | 76 | 1005.8 |
| 20260506200008 | 18 | 275 | 1.6 | 6.4 | 0.00 | 0.00 | 0.00 | 76 | 1005.9 |
| 20260506194507 | 18 | 276 | 0.0 | 3.2 | 0.00 | 0.00 | 0.00 | 77 | 1005.9 |
| 20260506193006 | 19 | 291 | 1.6 | 4.8 | 0.00 | 0.00 | 0.00 | 78 | 1006.0 |
| 20260506191505 | 18 | 285 | 0.0 | 4.8 | 0.00 | 0.00 | 0.00 | 78 | 1006.0 |
| 20260506190005 | 19 | 279 | 1.6 | 4.8 | 0.00 | 0.00 | 0.00 | 78 | 1006.0 |
| 20260506184503 | 18 | 287 | 1.6 | 6.4 | 0.00 | 0.00 | 0.00 | 78 | 1006.2 |
| 20260506183005 | 18 | 283 | 1.6 | 8.0 | 0.00 | 0.00 | 0.00 | 78 | 1006.3 |
| 20260506181501 | 18 | 294 | 1.6 | 11.3 | 0.00 | 0.00 | 0.00 | 75 | 1006.3 |
| 20260506180001 | 18 | 302 | 1.6 | 9.7 | 0.00 | 0.00 | 0.00 | 72 | 1006.4 |
| 20260506174501 | 17 | 249 | 4.8 | 11.3 | 0.00 | 0.00 | 0.00 | 69 | 1006.5 |
| 20260506173135 | 17 | 269 | 3.2 | 11.3 | 0.00 | 0.00 | 0.00 | 63 | 1006.4 |
| 20260506171559 | 17 | 280 | 3.2 | 8.0 | 0.00 | 0.00 | 0.00 | 58 | 1006.4 |
| 20260506170100 | 16 | 226 | 1.6 | 4.8 | 0.00 | 0.00 | 0.00 | 54 | 1006.6 |
| 20260506164559 | 16 | 314 | 1.6 | 8.0 | 0.00 | 0.00 | 0.00 | 52 | 1006.5 |
| 20260506163105 | 16 | 275 | 0.0 | 9.7 | 0.00 | 0.00 | 0.00 | 44 | 1006.5 |
| 20260506161559 | 16 | 278 | 3.2 | 9.7 | 0.00 | 0.00 | 0.00 | 39 | 1006.5 |
| 20260506160100 | 16 | 278 | 0.0 | 6.4 | 0.00 | 0.00 | 0.00 | 35 | 1006.7 |
| 20260506154557 | 16 | 276 | 1.6 | 11.3 | 0.00 | 0.00 | 0.00 | 32 | 1006.6 |
| 20260506153058 | 16 | 260 | 0.0 | 9.7 | 0.00 | 0.00 | 0.00 | 28 | 1006.4 |
| 20260506151554 | 16 | 229 | 4.8 | 12.9 | 0.00 | 0.00 | 0.00 | 30 | 1006.0 |
| 20260506150057 | 16 | 284 | 3.2 | 8.0 | 0.00 | 0.00 | 0.00 | 32 | 1006.8 |
| 20260506144603 | 16 | 270 | 1.6 | 4.8 | 0.00 | 0.00 | 0.00 | 38 | 1007.5 |
| 20260506143050 | 16 | 273 | 0.0 | 6.4 | 0.00 | 0.00 | 0.00 | 43 | 1007.4 |
| 20260506141550 | 16 | 270 | 3.2 | 14.5 | 0.00 | 0.00 | 0.00 | 47 | 1007.1 |
| 20260506140047 | 16 | 236 | 1.6 | 8.0 | 0.00 | 0.00 | 0.00 | 43 | 1006.8 |
| 20260506134646 | 16 | 256 | 3.2 | 12.9 | 0.00 | 0.00 | 0.00 | 53 | 1006.7 |
| 20260506133045 | 16 | 297 | 4.8 | 14.5 | 0.00 | 0.00 | 0.00 | 61 | 1006.8 |
| 20260506131539 | 16 | 277 | 4.8 | 11.3 | 0.00 | 0.00 | 0.00 | 69 | 1006.9 |
| 20260506130038 | 17 | 278 | 3.2 | 9.7 | 0.00 | 0.00 | 0.00 | 70 | 1007.0 |
| 20260506124539 | 17 | 269 | 1.6 | 8.0 | 0.00 | 0.00 | 0.00 | 74 | 1007.0 |
| 20260506123036 | 17 | 229 | 3.2 | 9.7 | 0.00 | 0.00 | 0.00 | 78 | 1007.1 |
| 20260506121532 | 17 | 264 | 3.2 | 6.4 | 0.00 | 0.00 | 0.00 | 79 | 1007.4 |
| 20260506120032 | 17 | 266 | 1.6 | 4.8 | 0.00 | 0.00 | 0.00 | 79 | 1007.5 |
| 20260506114527 | 18 | 250 | 1.6 | 9.7 | 0.00 | 0.00 | 0.00 | 78 | 1007.2 |
| 20260506113025 | 18 | 238 | 0.0 | 9.7 | 0.00 | 0.00 | 0.00 | 74 | 1006.9 |
| 20260506111522 | 18 | 252 | 3.2 | 11.3 | 0.00 | 0.00 | 0.00 | 72 | 1006.7 |
| 20260506110022 | 18 | 253 | 3.2 | 11.3 | 0.00 | 0.00 | 0.00 | 72 | 1006.6 |
| 20260506104517 | 18 | 271 | 3.2 | 12.9 | 0.00 | 0.00 | 0.00 | 70 | 1006.3 |
| 20260506103015 | 19 | 292 | 4.8 | 14.5 | 0.00 | 0.00 | 0.00 | 68 | 1006.2 |
| 20260506101514 | 19 | 268 | 3.2 | 11.3 | 0.00 | 0.00 | 0.00 | 67 | 1006.2 |
| 20260506100014 | 19 | 263 | 3.2 | 14.5 | 0.00 | 0.00 | 0.00 | 67 | 1006.1 |
| 20260506094513 | 19 | 200 | 1.6 | 6.4 | 0.00 | 0.00 | 0.00 | 67 | 1006.1 |
| 20260506093011 | 19 | 269 | 1.6 | 9.7 | 0.00 | 0.00 | 0.00 | 66 | 1005.9 |
| 20260506091512 | 19 | 281 | 3.2 | 11.3 | 0.00 | 0.00 | 0.00 | 66 | 1006.0 |
| 20260506090018 | 19 | 273 | 1.6 | 9.7 | 0.00 | 0.00 | 0.00 | 65 | 1006.3 |